| time (UTC) | temp C | wind direction | speed KPH | gust KPH | rain 1hr cm | rain 24hr cm | rain mn cm | humidity % | barometer mb |
| 20260508211539 | 35 | 251 | 0.0 | 19.3 | 0.00 | 0.00 | 0.00 | 19 | 964.7 |
| 20260508210037 | 34 | 218 | 6.4 | 16.1 | 0.00 | 0.00 | 0.00 | 19 | 965.1 |
| 20260508204541 | 33 | 252 | 4.8 | 17.7 | 0.00 | 0.00 | 0.00 | 20 | 965.4 |
| 20260508203032 | 33 | 250 | 1.6 | 19.3 | 0.00 | 0.00 | 0.00 | 20 | 965.6 |
| 20260508201531 | 33 | 234 | 1.6 | 16.1 | 0.00 | 0.00 | 0.00 | 20 | 965.7 |
| 20260508200031 | 33 | 242 | 0.0 | 6.4 | 0.00 | 0.00 | 0.00 | 20 | 966.0 |
| 20260508194527 | 32 | 163 | 0.0 | 16.1 | 0.00 | 0.00 | 0.00 | 22 | 966.2 |
| 20260508193024 | 32 | 198 | 3.2 | 11.3 | 0.00 | 0.00 | 0.00 | 21 | 966.4 |
| 20260508191528 | 32 | 207 | 0.0 | 3.2 | 0.00 | 0.00 | 0.00 | 21 | 966.7 |
| 20260508190026 | 31 | 213 | 3.2 | 14.5 | 0.00 | 0.00 | 0.00 | 22 | 966.9 |
| 20260508184520 | 31 | 273 | 0.0 | 12.9 | 0.00 | 0.00 | 0.00 | 22 | 967.1 |
| 20260508183018 | 30 | 172 | 3.2 | 16.1 | 0.00 | 0.00 | 0.00 | 24 | 967.3 |
| 20260508181518 | 31 | 94 | 0.0 | 0.0 | 0.00 | 0.00 | 0.00 | 23 | 967.4 |
| 20260508180020 | 30 | 88 | 0.0 | 0.0 | 0.00 | 0.00 | 0.00 | 24 | 967.6 |
| 20260508174513 | 30 | 88 | 0.0 | 0.0 | 0.00 | 0.00 | 0.00 | 24 | 967.8 |
| 20260508173010 | 29 | 88 | 0.0 | 0.0 | 0.00 | 0.00 | 0.00 | 25 | 967.8 |
| 20260508171513 | 29 | 88 | 0.0 | 0.0 | 0.00 | 0.00 | 0.00 | 25 | 968.0 |
| 20260508170007 | 28 | 88 | 0.0 | 0.0 | 0.00 | 0.00 | 0.00 | 27 | 968.1 |
| 20260508164504 | 27 | 76 | 0.0 | 0.0 | 0.00 | 0.00 | 0.00 | 27 | 968.2 |
| 20260508163002 | 27 | 76 | 0.0 | 0.0 | 0.00 | 0.00 | 0.00 | 27 | 968.2 |
| 20260508161501 | 27 | 76 | 0.0 | 0.0 | 0.00 | 0.00 | 0.00 | 28 | 968.2 |
| 20260508160158 | 26 | 75 | 0.0 | 0.0 | 0.00 | 0.00 | 0.00 | 29 | 968.3 |
| 20260508154559 | 26 | 76 | 0.0 | 0.0 | 0.00 | 0.00 | 0.00 | 29 | 968.0 |
| 20260508153055 | 25 | 72 | 0.0 | 0.0 | 0.00 | 0.00 | 0.00 | 30 | 968.2 |
| 20260508151554 | 25 | 72 | 0.0 | 0.0 | 0.00 | 0.00 | 0.00 | 30 | 968.3 |
| 20260508150151 | 25 | 72 | 0.0 | 0.0 | 0.00 | 0.00 | 0.00 | 31 | 968.3 |
| 20260508144549 | 24 | 72 | 0.0 | 0.0 | 0.00 | 0.00 | 0.00 | 31 | 968.4 |
| 20260508143059 | 23 | 69 | 0.0 | 0.0 | 0.00 | 0.00 | 0.00 | 32 | 968.4 |
| 20260508141554 | 23 | 84 | 0.0 | 0.0 | 0.00 | 0.00 | 0.00 | 33 | 968.2 |
| 20260508140049 | 22 | 84 | 0.0 | 0.0 | 0.00 | 0.00 | 0.00 | 33 | 968.2 |
| 20260508134543 | 22 | 84 | 0.0 | 0.0 | 0.00 | 0.00 | 0.00 | 34 | 967.9 |
| 20260508133144 | 21 | 84 | 0.0 | 0.0 | 0.00 | 0.00 | 0.00 | 34 | 967.8 |
| 20260508131540 | 21 | 84 | 0.0 | 0.0 | 0.00 | 0.00 | 0.00 | 35 | 967.6 |
| 20260508130037 | 21 | 84 | 0.0 | 0.0 | 0.00 | 0.00 | 0.00 | 34 | 967.3 |
| 20260508124534 | 21 | 84 | 0.0 | 0.0 | 0.00 | 0.00 | 0.00 | 34 | 967.1 |
| 20260508123032 | 21 | 81 | 0.0 | 0.0 | 0.00 | 0.00 | 0.00 | 34 | 966.8 |
| 20260508121630 | 21 | 79 | 0.0 | 0.0 | 0.00 | 0.00 | 0.00 | 34 | 966.8 |
| 20260508120034 | 21 | 79 | 0.0 | 0.0 | 0.00 | 0.00 | 0.00 | 35 | 966.7 |
| 20260508114528 | 21 | 79 | 0.0 | 0.0 | 0.00 | 0.00 | 0.00 | 35 | 966.7 |
| 20260508113026 | 21 | 79 | 0.0 | 0.0 | 0.00 | 0.00 | 0.00 | 35 | 966.7 |
| 20260508111525 | 21 | 79 | 0.0 | 0.0 | 0.00 | 0.00 | 0.00 | 35 | 966.6 |
| 20260508110023 | 21 | 79 | 0.0 | 0.0 | 0.00 | 0.00 | 0.00 | 34 | 966.6 |
| 20260508104525 | 22 | 79 | 0.0 | 0.0 | 0.00 | 0.00 | 0.00 | 33 | 966.6 |
| 20260508103019 | 22 | 79 | 0.0 | 0.0 | 0.00 | 0.00 | 0.00 | 33 | 966.5 |
| 20260508101518 | 22 | 79 | 0.0 | 0.0 | 0.00 | 0.00 | 0.00 | 33 | 966.4 |
| 20260508100017 | 22 | 79 | 0.0 | 0.0 | 0.00 | 0.00 | 0.00 | 33 | 966.2 |
| 20260508094515 | 22 | 79 | 0.0 | 0.0 | 0.00 | 0.00 | 0.00 | 33 | 966.2 |
| 20260508093021 | 22 | 79 | 0.0 | 0.0 | 0.00 | 0.00 | 0.00 | 32 | 966.3 |
| 20260508091513 | 22 | 72 | 0.0 | 0.0 | 0.00 | 0.00 | 0.00 | 31 | 966.2 |
| 20260508090014 | 22 | 68 | 0.0 | 0.0 | 0.00 | 0.00 | 0.00 | 28 | 966.3 |
| 20260508084510 | 22 | 64 | 0.0 | 0.0 | 0.00 | 0.00 | 0.00 | 25 | 966.4 |
| 20260508083018 | 22 | 66 | 0.0 | 0.0 | 0.00 | 0.00 | 0.00 | 25 | 966.4 |
| 20260508081504 | 22 | 110 | 0.0 | 0.0 | 0.00 | 0.00 | 0.00 | 26 | 966.4 |
| 20260508080002 | 23 | 110 | 0.0 | 0.0 | 0.00 | 0.00 | 0.00 | 27 | 966.3 |
| 20260508074600 | 23 | 110 | 0.0 | 0.0 | 0.00 | 0.00 | 0.00 | 27 | 966.3 |
| 20260508073059 | 23 | 110 | 0.0 | 0.0 | 0.00 | 0.00 | 0.00 | 27 | 966.2 |
| 20260508071556 | 24 | 265 | 0.0 | 0.0 | 0.00 | 0.00 | 0.00 | 25 | 966.1 |
| 20260508070050 | 25 | 265 | 0.0 | 0.0 | 0.00 | 0.00 | 0.00 | 24 | 966.0 |
| 20260508064605 | 25 | 265 | 0.0 | 0.0 | 0.00 | 0.00 | 0.00 | 25 | 966.0 |
| 20260508063048 | 25 | 265 | 0.0 | 0.0 | 0.00 | 0.00 | 0.00 | 25 | 966.1 |
| 20260508061548 | 25 | 265 | 0.0 | 0.0 | 0.00 | 0.00 | 0.00 | 24 | 966.1 |
| 20260508060049 | 26 | 265 | 0.0 | 0.0 | 0.00 | 0.00 | 0.00 | 23 | 966.0 |
| 20260508054551 | 26 | 265 | 0.0 | 0.0 | 0.00 | 0.00 | 0.00 | 22 | 966.0 |
| 20260508053047 | 27 | 265 | 0.0 | 0.0 | 0.00 | 0.00 | 0.00 | 21 | 965.9 |
| 20260508051546 | 27 | 265 | 0.0 | 0.0 | 0.00 | 0.00 | 0.00 | 21 | 965.8 |
| 20260508050050 | 27 | 265 | 0.0 | 0.0 | 0.00 | 0.00 | 0.00 | 19 | 965.7 |
| 20260508044546 | 28 | 265 | 0.0 | 0.0 | 0.00 | 0.00 | 0.00 | 19 | 965.6 |
| 20260508043045 | 29 | 265 | 0.0 | 0.0 | 0.00 | 0.00 | 0.00 | 18 | 965.5 |
| 20260508041545 | 30 | 265 | 0.0 | 0.0 | 0.00 | 0.00 | 0.00 | 17 | 965.3 |
| 20260508040043 | 30 | 265 | 0.0 | 0.0 | 0.00 | 0.00 | 0.00 | 17 | 965.2 |
| 20260508034544 | 30 | 265 | 0.0 | 0.0 | 0.00 | 0.00 | 0.00 | 17 | 965.0 |
| 20260508033042 | 31 | 265 | 0.0 | 0.0 | 0.00 | 0.00 | 0.00 | 16 | 964.8 |
| 20260508031542 | 31 | 265 | 0.0 | 0.0 | 0.00 | 0.00 | 0.00 | 16 | 964.6 |
| 20260508030053 | 31 | 262 | 0.0 | 14.5 | 0.00 | 0.00 | 0.00 | 16 | 964.5 |
| 20260508024553 | 31 | 260 | 9.7 | 17.7 | 0.00 | 0.00 | 0.00 | 15 | 964.2 |
| 20260508023040 | 31 | 257 | 11.3 | 19.3 | 0.00 | 0.00 | 0.00 | 15 | 964.0 |
| 20260508021540 | 32 | 286 | 1.6 | 17.7 | 0.00 | 0.00 | 0.00 | 14 | 964.0 |
| 20260508020045 | 32 | 254 | 0.0 | 14.5 | 0.00 | 0.00 | 0.00 | 14 | 963.8 |
| 20260508014539 | 32 | 271 | 0.0 | 16.1 | 0.00 | 0.00 | 0.00 | 14 | 963.7 |
| 20260508013037 | 33 | 198 | 1.6 | 12.9 | 0.00 | 0.00 | 0.00 | 14 | 963.6 |
| 20260508011549 | 33 | 237 | 0.0 | 12.9 | 0.00 | 0.00 | 0.00 | 13 | 963.5 |
| 20260508010037 | 33 | 267 | 0.0 | 0.0 | 0.00 | 0.00 | 0.00 | 13 | 963.5 |
| 20260508004550 | 33 | 267 | 0.0 | 14.5 | 0.00 | 0.00 | 0.00 | 13 | 963.5 |
| 20260508003041 | 33 | 284 | 3.2 | 14.5 | 0.00 | 0.00 | 0.00 | 13 | 963.5 |
| 20260508001539 | 34 | 271 | 0.0 | 16.1 | 0.00 | 0.00 | 0.00 | 12 | 963.4 |
| 20260508000033 | 33 | 229 | 3.2 | 17.7 | 0.00 | 0.00 | 0.00 | 13 | 963.5 |
| 20260507234533 | 34 | 215 | 4.8 | 22.5 | 0.00 | 0.00 | 0.00 | 13 | 963.4 |
| 20260507233032 | 33 | 182 | 3.2 | 16.1 | 0.00 | 0.00 | 0.00 | 13 | 963.5 |
| 20260507231530 | 34 | 183 | 0.0 | 0.0 | 0.00 | 0.00 | 0.00 | 13 | 963.6 |
| 20260507230028 | 33 | 200 | 0.0 | 22.5 | 0.00 | 0.00 | 0.00 | 13 | 963.8 |
| 20260507224526 | 33 | 244 | 0.0 | 0.0 | 0.00 | 0.00 | 0.00 | 12 | 964.0 |
| 20260507223025 | 34 | 263 | 1.6 | 16.1 | 0.00 | 0.00 | 0.00 | 12 | 964.2 |
| 20260507221521 | 33 | 207 | 0.0 | 12.9 | 0.00 | 0.00 | 0.00 | 13 | 964.3 |
| 20260507220019 | 33 | 234 | 1.6 | 11.3 | 0.00 | 0.00 | 0.00 | 13 | 964.6 |
| 20260507214519 | 33 | 168 | 0.0 | 0.0 | 0.00 | 0.00 | 0.00 | 13 | 964.7 |
| 20260507213021 | 33 | 236 | 0.0 | 14.5 | 0.00 | 0.00 | 0.00 | 14 | 965.0 |